Location: Poprad
(49.0500°N, 20.3000°E)
Time: 10:18:27
(UTC+01:00)

ISS - Pass Details

Date: 29 January 2021
Orbit: 417 x 422 km, 51.6° (Epoch: 07 March)

Event Time Altitude Azimuth Distance (km) Brightness Sun altitude
Rises 18:02:12 0° 283° (WNW) 2,373 1.4 -14.9°
Reaches altitude 10° 18:04:20 10° 287° (WNW) 1,509 0.1 -15.3°
Maximum altitude 18:07:40 56° 7° (N) 509 -3.5 -15.8°
Enters shadow 18:08:39 38° 64° (ENE) 660 -3.3 -16.0°
